User: anonymous   Login
Location: Goheenville
(40.9070°N, 79.3720°W)
Time: 08:49:49
(UTC-05:00)
Language:

Cosmos 1633 - Orbit

View from above orbital plane
View from above orbital plane
View from above satellite
View from above satellite

Ground track
Ground track

The orbit data is extracted from the following two-line orbital elements,

1 15592U 85020A   14330.11958193  .00007759  00000-0  35067-3 0  6073
2 15592 082.5393 171.2235 0015584 224.7547 243.4828 15.20684996621874
Epoch (UTC): 26 November 2014 02:52:11
Eccentricity: 0.0015584
inclination: 82.5393°
perigee height: 493 km
apogee height: 514 km
right ascension of ascending node: 171.2235°
argument of perigee: 224.7547°
revolutions per day: 15.20684996
mean anomaly at epoch: 243.4828°
orbit number at epoch: 62187

The dashed part of the orbit path shows where the satellite is in the earth's shadow,  

DLR